[[{"header":{"parameterUnit":"m.s-1","parameterCategory":1,"la1":30.2991,"la2":30.254,"lo1":-89.0895,"lo2":-89.0444,"dy":0.0017,"dx":0.0017,"nx":28,"ny":28,"refTime":"2023-09-14T03:00:00:Z","depth":0,"parameterNumber":2,"parameterNumberName":"U-component_of_WINDS"},"data":[0,0,0,0,0,0,0,0,0,0,0,0,0,0,0,0,0,0,0,0,0,0,0,0,0,0,0,0,0,0,0,0,0,0,0,0,0,0,0,0,0,0,0,0,0,0,0,0,0,0,0,0,0,0,0,0,0,0,1.3887,1.3886,0,1.3856,1.3856,1.3855,1.3822,1.3822,1.3821,1.3821,1.3789,1.3788,1.3788,0,0,0,0,0,0,0,0,0,0,0,0,0,1.3914,1.3914,1.3887,1.3886,1.3886,1.3856,1.3856,1.3855,1.3822,1.3822,1.3821,1.3821,1.3789,1.3788,1.3788,0,0,0,0,0,0,0,0,0,0,0,0,0,1.3895,1.3914,1.3887,1.3866,1.3864,1.3856,1.3856,1.3855,1.3822,1.3822,1.3821,1.382,1.3789,1.3788,1.3788,1.3798,0,0,1.3786,1.3785,0,0,0,0,0,0,0,0,1.3896,1.3894,1.3869,1.3867,1.3865,1.3842,1.3854,1.3836,1.3823,1.3838,1.3821,1.382,1.3807,1.3805,1.3801,1.3797,1.3795,1.3786,1.3785,1.3785,1.3785,0,0,0,0,0,0,0,1.3897,1.3895,1.3874,1.3869,1.3866,1.3857,1.3854,1.385,1.3827,1.3837,1.3834,1.3831,1.3806,1.3801,1.38,1.3795,1.3786,1.3785,1.3785,1.3785,1.3795,1.3796,0,0,0,0,0,0,1.3902,1.3896,1.3875,1.3874,1.3879,1.3857,1.3853,1.385,1.3827,1.3823,1.3832,1.383,1.3803,1.38,1.3798,1.3807,1.3785,1.3784,1.3784,1.3794,1.3795,1.3796,0,0,0,0,0,0,1.3903,1.39,1.3877,1.3884,1.388,1.3858,1.3854,1.385,1.3846,1.3823,1.3819,1.3832,1.3802,1.3799,1.3798,1.3805,1.3784,1.3784,1.3794,1.3795,1.3795,1.3826,0,0,0,0,0,0,1.3904,1.3901,1.3905,1.3885,1.388,1.3877,1.3855,1.385,1.3845,1.3842,1.3822,1.3818,1.3801,1.3799,1.3797,1.3804,1.3783,1.3793,1.3794,1.3795,1.3824,1.3828,1.3831,0,0,0,0,0,1.3905,1.3915,1.3906,1.3903,1.3885,1.3878,1.3875,1.3856,1.3846,1.3849,1.3834,1.3818,1.3805,1.3799,1.3797,1.3804,1.3792,1.3794,1.3795,1.3822,1.3827,1.3831,0,0,0,0,0,0,1.3937,1.3912,1.3901,1.3905,1.3894,1.3872,1.3876,1.3862,1.3853,1.3851,1.3827,1.3823,1.3824,1.3814,1.3808,1.3811,1.3796,1.3797,1.3818,1.3822,1.3825,1.3827,1.3783,0,0,0,0,0,1.3945,1.3942,1.392,1.3926,1.3921,1.39,1.3896,1.3882,1.3869,1.3864,1.3849,1.3837,1.383,1.3825,1.3818,1.3823,1.3817,1.3826,1.383,1.3833,1.3833,1.3833,1.3836,1.3801,1.3801,1.3801,0,0,1.3961,1.3947,1.3946,1.3932,1.3921,1.3917,1.3896,1.3893,1.389,1.3864,1.3861,1.385,1.3834,1.3835,1.3835,1.3827,1.3842,1.3834,1.3837,1.3836,1.3835,1.3838,1.3841,1.3802,1.3801,1.3801,0,0,1.3987,1.3977,1.398,1.3969,1.3954,1.394,1.394,1.3921,1.3912,1.3909,1.3889,1.3884,1.3873,1.3862,1.3855,1.3876,1.386,1.3874,1.3892,1.3891,1.3894,1.3896,1.3902,1.3904,1.3875,1.3875,1.3876,0,1.4008,1.4002,1.3983,1.3981,1.3974,1.3951,1.3952,1.3943,1.3926,1.3922,1.3913,1.3897,1.3885,1.3882,1.3887,1.3883,1.3882,1.3876,1.3896,1.3898,1.3899,1.3904,1.3907,1.3877,1.3877,1.3877,1.3877,0,1.4028,1.4024,1.4028,1.4012,1.4006,1.4006,1.3985,1.3982,1.3968,1.3955,1.3951,1.3936,1.3924,1.3922,1.391,1.3917,1.3912,1.39,1.3884,1.3905,1.3909,1.3911,1.3879,1.3879,1.3878,1.3878,0,0,1.4073,1.4046,1.4047,1.4039,1.402,1.4016,1.4014,1.4002,1.3999,1.3988,1.3984,1.3975,1.3963,1.3955,1.394,1.3941,1.3955,1.3928,1.3927,1.3932,1.396,1.3968,1.3971,1.3945,1.3946,1.3946,1.3961,0,1.4095,1.4091,1.4072,1.4073,1.4068,1.4045,1.4044,1.4031,1.4018,1.4011,1.3997,1.399,1.3976,1.397,1.397,1.3954,1.396,1.3953,1.3941,1.394,1.3944,1.3974,1.3982,1.3997,1.3963,1.3963,1.3963,0,1.4119,1.4109,1.4109,1.4088,1.4086,1.4085,1.4071,1.4066,1.4051,1.4041,1.4032,1.4016,1.4011,1.3997,1.399,1.3985,1.3979,1.397,1.397,1.3967,1.3952,1.3969,1.4002,1.4003,1.3966,1.3966,1.3965,0,1.4149,1.4136,1.4134,1.4127,1.4104,1.4103,1.4093,1.4078,1.4071,1.406,1.4055,1.4043,1.4036,1.4027,1.4007,1.3999,1.4001,1.3986,1.3992,1.3992,1.3992,1.3992,1.4022,1.3991,1.3991,1.3991,1.3991,0,1.4174,1.4174,1.4147,1.4145,1.4145,1.4124,1.4123,1.4111,1.4097,1.4092,1.4072,1.4067,1.4043,1.4035,1.402,1.4015,1.4012,1.4003,1.3999,1.4004,1.4005,1.3999,1.3997,1.3991,1.3991,1.3991,1.3991,0,1.4207,1.4189,1.4184,1.4163,1.4157,1.4157,1.4138,1.4135,1.4121,1.4115,1.4112,1.409,1.4079,1.4059,1.4044,1.4033,1.4031,1.4024,1.4036,1.4033,1.4039,1.4038,1.4065,1.4066,1.4036,1.4036,1.4037,0,1.4222,1.4222,1.42,1.4196,1.4186,1.4179,1.4173,1.4152,1.4145,1.4127,1.4126,1.4114,1.4104,1.4088,1.4069,1.4057,1.4049,1.4059,1.4047,1.4051,1.4047,1.4046,1.4045,1.4061,1.4062,1.4062,1.4062,0,1.4252,1.4243,1.4234,1.4222,1.4214,1.4204,1.4192,1.4189,1.4165,1.4159,1.4148,1.414,1.4124,1.4111,1.4096,1.4084,1.4069,1.4067,1.4067,1.4071,1.4077,1.4072,1.4041,1.4066,1.4065,1.4065,1.4065,1.4065,1.4275,1.4273,1.4257,1.4248,1.4237,1.4226,1.4222,1.4207,1.4198,1.4183,1.4172,1.4161,1.4145,1.4122,1.4112,1.4103,1.4095,1.4096,1.4096,1.4096,1.4098,1.408,1.41,1.41,1.41,1.41,1.41,0,1.4301,1.429,1.4282,1.4266,1.4258,1.4245,1.4231,1.4225,1.4217,1.4203,1.4193,1.418,1.4168,1.4148,1.4134,1.4131,1.4123,1.4128,1.4127,1.4124,1.4106,1.4106,1.4134,1.4134,1.4134,1.4134,1.4134,1.4134,1.4314,1.431,1.4299,1.4288,1.4277,1.4267,1.426,1.4249,1.4238,1.4224,1.4214,1.4202,1.4186,1.417,1.4158,1.4152,1.4147,1.4154,1.4146,1.4129,1.4126,1.4122,1.4123,1.4153,1.4153,1.4165,1.4165,1.4165]},{"header":{"parameterUnit":"m.s-1","parameterCategory":1,"la1":30.2991,"la2":30.254,"lo1":-89.0895,"lo2":-89.0444,"dy":0.0017,"dx":0.0017,"nx":28,"ny":28,"refTime":"2023-09-14T03:00:00:Z","depth":0,"parameterNumber":3,"parameterNumberName":"V-component_of_WINDS"},"data":[0,0,0,0,0,0,0,0,0,0,0,0,0,0,0,0,0,0,0,0,0,0,0,0,0,0,0,0,0,0,0,0,0,0,0,0,0,0,0,0,0,0,0,0,0,0,0,0,0,0,0,0,0,0,0,0,0,0,2.2549,2.2549,0,2.2548,2.2548,2.2548,2.2525,2.2525,2.2524,2.2524,2.2522,2.2522,2.2523,0,0,0,0,0,0,0,0,0,0,0,0,0,2.2531,2.2531,2.2549,2.2549,2.2549,2.2548,2.2548,2.2548,2.2525,2.2525,2.2524,2.2523,2.2521,2.2522,2.2523,0,0,0,0,0,0,0,0,0,0,0,0,0,2.2535,2.2531,2.2549,2.2538,2.2537,2.2548,2.2548,2.2548,2.2525,2.2525,2.2524,2.2523,2.2521,2.2522,2.2523,2.2544,0,0,2.2525,2.2525,0,0,0,0,0,0,0,0,2.2535,2.2536,2.2539,2.2539,2.2537,2.2536,2.2541,2.2547,2.2526,2.253,2.2524,2.2523,2.2527,2.2527,2.2529,2.2544,2.2544,2.2525,2.2525,2.2526,2.2526,0,0,0,0,0,0,0,2.2535,2.2536,2.2549,2.254,2.2538,2.2532,2.2532,2.2542,2.2533,2.2529,2.2528,2.2528,2.2526,2.2528,2.2529,2.2544,2.2525,2.2526,2.2526,2.2526,2.2576,2.2576,0,0,0,0,0,0,2.2536,2.2536,2.2549,2.2549,2.2534,2.2533,2.2533,2.2537,2.2533,2.2532,2.2529,2.2527,2.2527,2.2528,2.2528,2.2552,2.2526,2.2526,2.2527,2.2575,2.2576,2.2577,0,0,0,0,0,0,2.2536,2.2537,2.2549,2.2542,2.2543,2.2535,2.254,2.2538,2.2539,2.2533,2.2531,2.2532,2.2527,2.2527,2.254,2.2552,2.2527,2.2527,2.2574,2.2575,2.2576,2.2601,0,0,0,0,0,0,2.2535,2.2537,2.2546,2.2542,2.2543,2.2561,2.254,2.2538,2.2541,2.2539,2.2535,2.2534,2.2526,2.2539,2.2541,2.2552,2.2528,2.2573,2.2574,2.2576,2.2599,2.2602,2.2606,0,0,0,0,0,2.2535,2.2553,2.2547,2.2548,2.2554,2.2562,2.2562,2.2553,2.2542,2.255,2.2545,2.2534,2.2551,2.2541,2.2542,2.2554,2.2572,2.2574,2.2576,2.2597,2.2602,2.2606,0,0,0,0,0,0,2.2559,2.2552,2.2545,2.2563,2.2563,2.2558,2.2568,2.2559,2.2562,2.2559,2.2547,2.2547,2.2561,2.2559,2.2548,2.2574,2.2559,2.2562,2.2575,2.2579,2.2583,2.2582,2.2529,0,0,0,0,0,2.2566,2.2573,2.2567,2.2584,2.2584,2.2576,2.2579,2.2572,2.2572,2.2571,2.2568,2.2568,2.2572,2.2576,2.258,2.2599,2.2597,2.2608,2.2611,2.2614,2.2616,2.2624,2.2628,2.2583,2.2583,2.2583,0,0,2.2581,2.2579,2.2584,2.2588,2.2588,2.2595,2.2576,2.2585,2.259,2.2573,2.2584,2.2582,2.258,2.2596,2.2602,2.2594,2.2628,2.2617,2.2619,2.2619,2.2626,2.263,2.2634,2.2585,2.2584,2.2584,0,0,2.2612,2.2612,2.2624,2.2624,2.2623,2.2617,2.262,2.2617,2.2614,2.2625,2.2612,2.2618,2.2627,2.2626,2.2627,2.2657,2.2646,2.2659,2.2677,2.2685,2.2689,2.2692,2.2701,2.2704,2.2661,2.2661,2.2661,0,2.2631,2.2641,2.2632,2.2641,2.2643,2.2628,2.264,2.264,2.264,2.2641,2.2633,2.2643,2.2642,2.2656,2.2663,2.2665,2.2667,2.2659,2.2689,2.2692,2.2695,2.2703,2.2707,2.2663,2.2662,2.2662,2.2662,0,2.2664,2.2671,2.2681,2.2682,2.2685,2.2696,2.2687,2.2691,2.2684,2.2679,2.269,2.2687,2.269,2.2693,2.2686,2.2706,2.2701,2.2691,2.2675,2.27,2.2708,2.2711,2.2665,2.2664,2.2664,2.2663,0,0,2.2709,2.2704,2.2707,2.2707,2.2704,2.271,2.2719,2.2722,2.2725,2.2726,2.2733,2.2741,2.2731,2.2732,2.2725,2.2732,2.2754,2.2721,2.2721,2.2726,2.2774,2.278,2.2784,2.2747,2.2748,2.2749,2.2773,0,2.2737,2.2753,2.2744,2.2761,2.2767,2.2753,2.2761,2.276,2.2756,2.276,2.2755,2.276,2.2748,2.2748,2.2755,2.275,2.2763,2.2748,2.2752,2.2753,2.2751,2.2788,2.2795,2.2818,2.2776,2.2777,2.2777,0,2.2772,2.2774,2.2791,2.2787,2.2789,2.2796,2.2797,2.2802,2.28,2.2797,2.2798,2.2788,2.2797,2.2782,2.2793,2.2783,2.2784,2.2782,2.2783,2.2781,2.2765,2.2786,2.2826,2.2829,2.2782,2.2782,2.2781,0,2.2801,2.2808,2.2819,2.2819,2.2815,2.282,2.2818,2.2816,2.2817,2.2819,2.2819,2.2822,2.2823,2.2824,2.2815,2.2806,2.2827,2.2812,2.2823,2.2823,2.2826,2.2826,2.2865,2.283,2.283,2.283,2.283,0,2.2832,2.2843,2.2832,2.2838,2.2849,2.2839,2.2851,2.2847,2.2845,2.285,2.2839,2.2844,2.2833,2.2837,2.283,2.2839,2.284,2.2836,2.2834,2.2836,2.2836,2.2836,2.2833,2.2831,2.2831,2.2831,2.283,0,2.2866,2.2859,2.2869,2.2864,2.2863,2.2871,2.2866,2.2872,2.2867,2.2873,2.2874,2.2866,2.287,2.2862,2.2865,2.286,2.2872,2.2868,2.2873,2.2871,2.2881,2.288,2.292,2.2924,2.2888,2.2888,2.2889,0,2.2886,2.2893,2.2889,2.2891,2.289,2.2895,2.2896,2.2887,2.2889,2.2887,2.2892,2.2895,2.2897,2.2903,2.2897,2.2899,2.2894,2.2908,2.2894,2.2895,2.2892,2.2891,2.2891,2.291,2.2911,2.2911,2.2911,0,2.2921,2.2917,2.292,2.2921,2.2923,2.2924,2.2924,2.2926,2.2916,2.2919,2.2922,2.2924,2.2926,2.2928,2.2929,2.2926,2.2917,2.2916,2.2918,2.292,2.2921,2.2919,2.2878,2.2915,2.2914,2.2914,2.2914,2.2914,2.2947,2.2952,2.295,2.2953,2.2952,2.2952,2.2956,2.2951,2.2954,2.2955,2.295,2.2954,2.2951,2.2951,2.2949,2.2952,2.2946,2.295,2.295,2.2951,2.2952,2.2922,2.2953,2.2952,2.2952,2.2952,2.2952,0,2.298,2.2977,2.298,2.298,2.2982,2.2974,2.2973,2.2975,2.2979,2.2978,2.2979,2.2983,2.2985,2.2979,2.298,2.2983,2.2979,2.2984,2.2983,2.2982,2.2958,2.2955,2.2987,2.2987,2.2987,2.2987,2.2987,2.2987,2.2997,2.3005,2.3001,2.3009,2.3006,2.301,2.301,2.301,2.3008,2.3012,2.3014,2.301,2.3007,2.3008,2.3009,2.3007,2.3007,2.3013,2.301,2.2987,2.2984,2.2981,2.2978,2.3014,2.3014,2.3033,2.3033,2.3034]}]]